TimeEST,TemperatureF,Dew PointF,Humidity,Sea Level PressureIn,VisibilityMPH,Wind Direction,Wind SpeedMPH,Gust SpeedMPH,PrecipitationIn,Events,Conditions,WindDirDegrees,DateUTC
12:51 AM,37.9,35.1,89,29.90,8.0,North,8.1,-,N/A,,Mostly Cloudy,360,2013-12-03 05:51:00
1:51 AM,37.0,35.1,93,29.90,8.0,NNE,5.8,-,N/A,,Mostly Cloudy,20,2013-12-03 06:51:00
2:51 AM,37.9,36.0,93,29.91,7.0,NNE,8.1,-,N/A,,Overcast,30,2013-12-03 07:51:00
3:51 AM,37.9,36.0,93,29.91,6.0,North,6.9,-,N/A,,Overcast,10,2013-12-03 08:51:00
4:51 AM,37.9,35.1,89,29.90,8.0,NNE,5.8,-,N/A,,Overcast,20,2013-12-03 09:51:00
5:51 AM,36.0,34.0,93,29.90,7.0,NNE,4.6,-,N/A,,Mostly Cloudy,20,2013-12-03 10:51:00
6:51 AM,37.9,35.1,89,29.92,7.0,North,6.9,-,N/A,,Mostly Cloudy,350,2013-12-03 11:51:00
7:51 AM,39.0,36.0,89,29.93,8.0,North,3.5,-,N/A,,Mostly Cloudy,360,2013-12-03 12:51:00
8:51 AM,43.0,36.0,76,29.94,8.0,North,3.5,-,N/A,,Mostly Cloudy,10,2013-12-03 13:51:00
9:51 AM,44.1,37.0,76,29.95,8.0,Calm,Calm,-,N/A,,Mostly Cloudy,0,2013-12-03 14:51:00
10:51 AM,48.9,36.0,61,29.94,8.0,Calm,Calm,-,N/A,,Mostly Cloudy,0,2013-12-03 15:51:00
11:51 AM,51.1,34.0,52,29.92,8.0,West,9.2,-,N/A,,Mostly Cloudy,260,2013-12-03 16:51:00
12:51 PM,54.0,34.0,47,29.89,9.0,West,5.8,-,N/A,,Scattered Clouds,260,2013-12-03 17:51:00
1:51 PM,54.0,34.0,47,29.88,9.0,WSW,5.8,-,N/A,,Partly Cloudy,250,2013-12-03 18:51:00
2:51 PM,54.0,34.0,47,29.88,9.0,West,5.8,-,N/A,,Clear,260,2013-12-03 19:51:00
3:51 PM,54.0,34.0,47,29.91,9.0,WSW,6.9,-,N/A,,Clear,240,2013-12-03 20:51:00
4:51 PM,51.1,32.0,48,29.93,9.0,WSW,8.1,-,N/A,,Clear,240,2013-12-03 21:51:00
5:51 PM,51.1,32.0,48,29.94,9.0,West,5.8,-,N/A,,Clear,270,2013-12-03 22:51:00
6:51 PM,50.0,32.0,50,29.96,8.0,West,5.8,-,N/A,,Clear,260,2013-12-03 23:51:00
7:51 PM,48.0,32.0,54,29.97,8.0,Calm,Calm,-,N/A,,Clear,0,2013-12-04 00:51:00
8:51 PM,42.1,34.0,73,29.98,7.0,NNE,8.1,-,N/A,,Clear,20,2013-12-04 01:51:00
9:51 PM,42.1,35.1,76,29.99,7.0,NNE,4.6,-,N/A,,Clear,30,2013-12-04 02:51:00
10:51 PM,39.0,34.0,82,30.01,7.0,North,5.8,-,N/A,,Clear,10,2013-12-04 03:51:00
11:51 PM,39.9,34.0,79,30.02,7.0,North,3.5,-,N/A,,Clear,10,2013-12-04 04:51:00